Regional Weather Roundup
Issued by NWS Little Rock, AR

Home | Current Version | Previous Version | Graphics & Text | Print | Product List | Glossary On
Versions: 1 2 3 4 5 6 7 8 9 10 11 12 13 14 15 16 17 18 19 20 21 22 23 24 25 26 27
000
ASUS44 KLZK 290305
RWRLZK

WEATHER ROUNDUP FOR ARKANSAS
NATIONAL WEATHER SERVICE LITTLE ROCK AR
1000 PM CDT THU JUL 28 2016

NOTE: "FAIR" INDICATES FEW OR NO CLOUDS BELOW 12,000 FEET WITH NO
SIGNIFICANT WEATHER AND/OR OBSTRUCTIONS TO VISIBILITY.

ARZ001-003-010-029-290400-
NORTHWEST ARKANSAS

CITY           SKY/WX    TMP DP  RH WIND       PRES   REMARKS
FAYETTEVILLE   CLOUDY    78  77  96 CALM      29.97R
FORT SMITH     CLOUDY    81  66  60 SW5       29.90S THUNDER
HARRISON       CLEAR     77  71  82 W3        29.96S
BENTONVILLE    MOCLDY    79  72  78 CALM      29.98R
ROGERS         PTCLDY    78  75  90 CALM      29.99R
SILOAM SPGS    CLOUDY    79  68  69 CALM      29.98R
HIGHFILL       CLOUDY    78  76  93 CALM      29.97R
$$

ARZ004-005-016-290400-
NORTH CENTRAL ARKANSAS

CITY           SKY/WX    TMP DP  RH WIND       PRES   REMARKS
BATESVILLE     CLEAR     79  70  73 SE6       29.93R
FLIPPIN        PTCLDY    81  72  74 S3        29.91R
MTN HOME       PTCLDY    76  70  82 E6        29.94R
$$

ARZ040-041-290400-
WEST CENTRAL ARKANSAS

CITY           SKY/WX    TMP DP  RH WIND       PRES   REMARKS
MENA             N/A    N/A N/A N/A MISG        N/A
MOUNT IDA      PTCLDY    80  75  84 CALM      29.95R HX  85
$$

ARZ009-017-025-026-028-290400-
NORTHEAST ARKANSAS

CITY           SKY/WX    TMP DP  RH WIND       PRES   REMARKS
CORNING          N/A     75  75 100 W13G21    29.97R
JONESBORO      CLOUDY    80  72  76 NE5       29.94R
NEWPORT        PTCLDY    76  74  93 S6        29.94R
WALNUT RIDGE   CLOUDY    77  72  83 N20G30    29.97R THUNDER
BLYTHEVILLE    CLOUDY    76  71  85 SE3       29.95R
$$

ARZ022-023-033-042-044-290400-
CENTRAL ARKANSAS

CITY           SKY/WX    TMP DP  RH WIND       PRES   REMARKS
LITTLE ROCK    PTCLDY    79  74  84 SW10      29.95R
N LITTLE ROCK    N/A     78  74  87 SW7       29.91S
JACKSONVILLE   PTCLDY    80  75  87 S10       29.93
SEARCY         PTCLDY    75  75 100 S5        29.95R
HOT SPRINGS    PTCLDY    79  73  82 SW8       29.97R
RUSSELLVILLE   CLEAR     79  74  84 CALM      29.91S
$$

ARZ036-290400-
EAST ARKANSAS

CITY           SKY/WX    TMP DP  RH WIND       PRES   REMARKS
WEST MEMPHIS   CLOUDY    79  76  90 SW6       29.94R
$$

ARZ050-053-066-070-073-290400-
SOUTHWEST ARKANSAS

CITY           SKY/WX    TMP DP  RH WIND       PRES   REMARKS
ARKADELPHIA    FAIR      75  74  96 S3        29.97R
CAMDEN         PTCLDY    73  70  88 CALM      29.98R
TEXARKANA      CLOUDY    74  72  93 S3        29.97S
EL DORADO      CLOUDY    72  72 100 CALM      29.98R
DE QUEEN       PTCLDY    77  75  93 S3        29.95S
$$

ARZ056-057-069-290400-
SOUTHEAST ARKANSAS

CITY           SKY/WX    TMP DP  RH WIND       PRES   REMARKS
PINE BLUFF     PTCLDY    75  73  93 S8        29.97R
STUTTGART      CLOUDY    77  72  83 S10       29.96R
MONTICELLO     CLOUDY    77  74  90 SW7       29.98R

$$






USA.gov is the U.S. government's official web portal to all federal, state and local government web resources and services.